Flag for U.S.A. Weather past 2 weeks in Post Falls, Idaho, U.S.A.

Now
37 °F

Passing clouds.


Feels Like: 29 °F
Forecast: 29 / 41 °F
Wind: 13 mph from Northeast

Location: Coeur d'Alene Weather Reporting System

Current Time: Dec 17, 2014 at 1:40:42 PM

Latest Report: Dec 17, 2014 at 12:55 PM


Visibility: 10 mi

Pressure: 29.90 "Hg

Humidity: 75%

Dew point: 30 °F

Location of Post FallsLocation

Historic Weather in Post Falls — Graph

°F

Post Falls temperature yesterday

Maximum temperature yesterday: 36 °F (at 10:35 AM)
Minimum temperature yesterday: 30 °F (at 12:55 AM)
Average temperature yesterday: 33 °F

Past Weeks' High & Low Weather Summary

 TemperatureHumidityPressure
High55 °F (Dec 10, 8:55 PM)100% (Dec 3, 11:35 PM)30.32 "Hg (Dec 3, 11:35 PM)
Low19 °F (Dec 2, 10:35 PM)51% (Dec 3, 12:15 PM)29.45 "Hg (Dec 11, 6:15 PM)
Average36 °F84%29.99 "Hg
* Reported Dec 2 12:15 PM — Dec 17 12:35 PM, Post Falls, Weather by CustomWeather, © 2014

Note: Actual official high and low records may vary slightly from our data, if they occured in-between our weather recording intervals... More about our weather records

Advertising

Post Falls weather history for previous 24 hours

 ConditionsComfort  
Time TempWeatherWind HumidityBarometerVisibility
12:35 PM
Dec 17
37 °FPassing clouds.12 mph75%29.91 "Hg10 mi
12:15 PM37 °FPartly sunny.13 mph75%29.91 "Hg10 mi
11:55 AM37 °FOvercast.13 mph70%29.91 "Hg10 mi
11:35 AM37 °FOvercast.12 mph75%29.92 "Hg10 mi
11:15 AM36 °FPartly sunny.12 mph81%29.92 "Hg10 mi
10:55 AM36 °FPassing clouds.12 mph81%29.93 "Hg10 mi
10:35 AM36 °FPassing clouds.12 mph75%29.93 "Hg10 mi
10:15 AM36 °FSunny.14 mph75%29.93 "Hg10 mi
9:55 AM36 °FSunny.14 mph75%29.94 "Hg10 mi
9:35 AM36 °FSunny.12 mph75%29.93 "Hg10 mi
9:15 AM34 °FSunny.10 mph81%29.94 "Hg10 mi
8:55 AM34 °FSunny.10 mph81%29.94 "Hg10 mi
8:35 AM34 °FSunny.9 mph81%29.93 "Hg10 mi
8:15 AM32 °FPassing clouds.7 mph80%29.93 "Hg10 mi
7:55 AM34 °FPartly sunny.9 mph81%29.93 "Hg10 mi
7:35 AM34 °FOvercast.9 mph81%29.93 "Hg10 mi
7:15 AM32 °FPassing clouds.8 mph87%29.93 "Hg10 mi
6:55 AM30 °FClear.6 mph86%29.93 "Hg10 mi
6:35 AM32 °FPassing clouds.9 mph80%29.93 "Hg10 mi
6:15 AM34 °FOvercast.10 mph81%29.93 "Hg10 mi
5:55 AM34 °FOvercast.8 mph81%29.93 "Hg10 mi
5:35 AM34 °FOvercast.7 mph81%29.94 "Hg10 mi
5:15 AM34 °FOvercast.9 mph81%29.94 "Hg10 mi
4:55 AM34 °FOvercast.10 mph81%29.93 "Hg10 mi
4:35 AM34 °FOvercast.12 mph81%29.93 "Hg10 mi
4:15 AM34 °FOvercast.9 mph81%29.93 "Hg10 mi
3:55 AM34 °FMostly cloudy.7 mph81%29.93 "Hg10 mi
3:35 AM34 °FMostly cloudy.7 mph81%29.93 "Hg10 mi
3:15 AM34 °FMostly cloudy.8 mph81%29.94 "Hg10 mi
2:55 AM34 °FMostly cloudy.8 mph81%29.94 "Hg10 mi
2:35 AM34 °FMostly cloudy.8 mph81%29.94 "Hg10 mi
2:15 AM34 °FMostly cloudy.9 mph81%29.94 "Hg10 mi
1:55 AM34 °FMostly cloudy.9 mph81%29.94 "Hg10 mi
1:35 AM34 °FMostly cloudy.7 mph81%29.95 "Hg10 mi
1:15 AM34 °FMostly cloudy.8 mph81%29.94 "Hg10 mi
12:55 AM34 °FOvercast.8 mph81%29.95 "Hg10 mi
12:35 AM34 °FOvercast.7 mph81%29.95 "Hg10 mi
12:15 AM34 °FOvercast.7 mph81%29.96 "Hg10 mi
11:55 PM
Dec 16
32 °FMostly cloudy.9 mph87%29.96 "Hg10 mi
11:35 PM32 °FMostly cloudy.10 mph87%29.96 "Hg10 mi
11:15 PM32 °FMostly cloudy.13 mph87%29.96 "Hg10 mi
10:55 PM34 °FOvercast.9 mph81%29.96 "Hg10 mi
10:35 PM34 °FMostly cloudy.7 mph81%29.96 "Hg10 mi
10:15 PM32 °FOvercast.7 mph87%29.96 "Hg10 mi
9:55 PM32 °FMostly cloudy.7 mph87%29.96 "Hg10 mi
9:35 PM32 °FMostly cloudy.8 mph87%29.95 "Hg10 mi
9:15 PM32 °FOvercast.8 mph87%29.95 "Hg10 mi
8:55 PM32 °FOvercast.8 mph87%29.95 "Hg10 mi
8:35 PM32 °FMostly cloudy.7 mph87%29.96 "Hg10 mi
8:15 PM32 °FMostly cloudy.9 mph87%29.95 "Hg10 mi
7:55 PM32 °FOvercast.9 mph87%29.95 "Hg10 mi
7:35 PM32 °FOvercast.8 mph87%29.95 "Hg10 mi
7:15 PM32 °FOvercast.8 mph87%29.95 "Hg10 mi
6:55 PM32 °FOvercast.8 mph87%29.95 "Hg10 mi
6:35 PM32 °FPassing clouds.9 mph87%29.96 "Hg10 mi
6:15 PM32 °FPartly cloudy.12 mph87%29.95 "Hg6 mi
5:55 PM32 °FOvercast.10 mph87%29.95 "Hg5 mi
5:35 PM32 °FMostly cloudy.12 mph87%29.95 "Hg4 mi
5:15 PM32 °FOvercast.12 mph87%29.95 "Hg5 mi
4:55 PM32 °FOvercast.10 mph80%29.95 "Hg6 mi
4:35 PM34 °FOvercast.12 mph75%29.95 "Hg7 mi
3:35 PM34 °FScattered clouds.9 mph75%29.94 "Hg10 mi
3:15 PM34 °FPartly sunny.12 mph75%29.94 "Hg10 mi
2:55 PM34 °FPartly sunny.10 mph75%29.93 "Hg10 mi
2:35 PM36 °FScattered clouds.13 mph70%29.93 "Hg10 mi
2:15 PM36 °FPartly sunny.14 mph65%29.92 "Hg10 mi
1:35 PM36 °FOvercast.17 mph65%29.92 "Hg10 mi
1:15 PM36 °FOvercast.17 mph65%29.92 "Hg10 mi
Weather by CustomWeather, © 2014

See weather overviewHow to use our weather pages